Weather in Romanovka

Russia / Primorsky Krai     43°14′04″N   132°27′42″E
temp.,
°C
wind,
m/s
gust,
m/s
humid.,
%
clouds,
%
prec.,
mm/h
press.,
hPa
HPBL,
m
3 march, wed
wed301:00−12ne12610 0.0 103063
04:00−13ne11590 0.0 103022
07:00−12e12510 0.0 103125
10:00−7se12408 0.0 1030187
13:00−2s495061 0.0 10281006
16:00−2s5107280 0.1 10251015
19:00−2sse51285100 0.4 1024882
22:00−2se31096100 1.5 1024489
4 march, thu
thu401:00−1se31195100 1.2 1023487
04:00−2se259384 1.3 1021114
07:00−2ese249482 0.0 102087
10:00+2se378046 0.0 1020521
13:00+5sse47650 0.0 1019691
16:00+5s59600 0.0 1017796
19:00+1se35842 0.0 1016146
22:00−1ese22921 0.0 101758
5 march, fri
fri501:00−1ese22920 0.0 101729
04:00−1ese12840 0.0 101721
07:00−1se118563 0.0 101622
10:00+3ese017482 0.0 101846
13:00+2nnw4790100 0.4 1019517
16:00−1nnw61176100 1.6 10211027
19:00−6n71366100 0.0 10251226
22:00−10n71264100 0.1 10301212
6 march, sat
sat601:00−14n7135633 0.0 10331078
04:00−15n6126017 0.0 10351024
07:00−16n512590 0.0 1036952
10:00−13n511510 0.0 10381021
13:00−10n58450 0.0 10371038
16:00−8nnw47440 0.0 1035966
19:00−9n25540 0.0 1035424
22:00−11ene23610 0.0 103697
7 march, sun
sun701:00−11ene11570 0.0 103422
04:00−12e11560 0.0 103421
07:00−12e11560 0.0 103321
10:00−6se11470 0.0 1032198
13:00−2sw366010 0.0 1029795
16:00−2sw376640 0.0 1026777
19:00−4s258458 0.0 1025262
22:00−4sse129273 0.0 102659